Regional Weather Roundup
Issued by NWS

Home | Current Version | Previous Version | Text Only | Print | Product List | Glossary Off
Versions: 1 2 3 4 5 6 7 8 9 10 11 12 13 14 15 16 17 18 19 20 21 22 23 24 25 26 27 28 29 30 31 32 33 34 35 36 37 38 39 40 41 42 43 44 45 46 47 48 49 50

000
ASUS45 KABQ 292101
RWRNM
NEW MEXICO REGIONAL WEATHER ROUNDUP
NATIONAL WEATHER SERVICE ALBUQUERQUE NM
300 PM MDT FRI MAY 29 2015

NOTE: "FAIR" MEANS FEW OR NO CLOUDS BELOW 12,000 FEET AGL WITH NO
       SIGNIFICANT WEATHER OR OBSTRUCTIONS TO VISION.

      THIS PRODUCT IS RELEASED AS TWO VERSIONS.  ONE VERSION NEAR
      THE TOP OF THE HOUR CONTAINING PRELIMINARY DATA FROM ALBUQUERQUE
      AND OTHER STATIONS.  A FINAL VERSION WITH ADDITIONAL DATA IS
      ISSUED ABOUT 10 MINUTES AFTER THE HOUR.

NMZ501-503-504-510>518-292200-
NORTHWEST PLATEAU/NORTHCENTRAL MOUNTAINS

CITY           SKY/WX    TMP DP  RH WIND       PRES   REMARKS
FARMINGTON     SUNNY     77  27  15 W18G29    30.14F
SANTA FE       PTSUNNY   75  31  19 N9        30.15F
TAOS           MOSUNNY   73  27  17 W15G31    30.19F

$$
NMZ402-403-502-505>509-292200-
WESTCENTRAL MOUNTAINS/SOUTHWEST MOUNTAINS

CITY           SKY/WX    TMP DP  RH WIND       PRES   REMARKS
GALLUP         PTSUNNY   77  33  20 VRB7G17   30.21F
GRANTS         PTSUNNY   72  27  18 SW12G17   30.21F
SILVER CITY      N/A     84  18   8 W10G23    30.13F

$$
NMZ407-409-411-412-292200-
SOUTHERN DESERTS

CITY           SKY/WX    TMP DP  RH WIND       PRES   REMARKS
LORDSBURG      FAIR      88  27  11 SW10G18   30.05F
DEMING         SUNNY     90  18   7 S9G26     30.03F
HOLLOMAN AFB   MOSUNNY   92  18   6 W12G20    29.99F
ALAMOGORDO     MOSUNNY   91  21   8 NW14      30.01F
T OR C         PTSUNNY   87  25  10 S12       30.04F

$$
NMZ519>523-292200-
CENTRAL VALLEYS/CENTRAL HIGHLANDS

CITY           SKY/WX    TMP DP  RH WIND       PRES   REMARKS
ALBUQUERQUE    PTSUNNY   78  31  17 W14G22    30.13F
DOUBLE EAGLE   PTSUNNY   72  36  26 SW15G36   30.17F
MORIARTY ARPT  FAIR      77  27  16 W18G24    30.18F
CLINES CORNERS PTSUNNY   74  25  16 W22G31    30.19F
BELEN          FAIR      81  29  14 CALM      30.11F
SOCORRO        NOT AVBL

$$
NMZ524>526-539-540-292200-
SOUTHCENTRAL MOUNTAINS

CITY           SKY/WX    TMP DP  RH WIND       PRES   REMARKS
RUIDOSO        NOT AVBL

$$
NMZ527>531-292200-
NORTHEAST HIGHLANDS/NORTHEAST PLAINS

CITY           SKY/WX    TMP DP  RH WIND       PRES   REMARKS
LAS VEGAS      CLOUDY    69  34  27 N12       30.15F
RATON          MOSUNNY   68  46  45 NE18      30.16R
CLAYTON        MOSUNNY   71  51  49 NE14      30.12F

$$
NMZ532>537-292200-
EASTCENTRAL PLAINS

CITY           SKY/WX    TMP DP  RH WIND       PRES   REMARKS
TUCUMCARI      PTSUNNY   80  54  40 E12       30.04F
CANNON AFB     PTSUNNY   77  55  46 NE7       30.06F
CLOVIS AIRPORT MOSUNNY   79  55  44 E9          N/A

$$
NMZ028-029-538-292200-
SOUTHEAST PLAINS

CITY           SKY/WX    TMP DP  RH WIND       PRES   REMARKS
ROSWELL        SUNNY     88  49  25 VRB6      29.99F
ARTESIA        SUNNY     88  50  27 VRB7G13   29.99F
CARLSBAD       SUNNY     89  53  29 SE8       29.96F
HOBBS          SUNNY     84  55  37 NE6       30.01F


$$


USA.gov is the U.S. government's official web portal to all federal, state and local government web resources and services.